Oakdale, LA

6:23 PM CDT on August 28, 2016 (GMT -0500)
Oakdale

Weather History for KACP - April, 2013

Change the Weather History Date:

Thursday, April 18, 2013

  Actual Average (KPOE) Record (KPOE)
Temperature  
Mean Temperature 66 °F -  
Max Temperature 82 °F 75 °F 91 °F (2006)
Min Temperature 50 °F 55 °F 39 °F (2001)
Cooling Degree Days 1    
Growing Degree Days 16 (Base 50)    
Moisture  
Dew Point 65 °F    
Average Humidity 81    
Maximum Humidity 94    
Minimum Humidity 66    
Precipitation  
Precipitation 0.17 in - - ()
Sea Level Pressure  
Sea Level Pressure 29.82 in    
Wind  
Wind Speed 10 mph (SSE)    
Max Wind Speed 23 mph    
Max Gust Speed 38 mph    
Visibility 9 miles    
Events Rain , Thunderstorm    
Averages and records for this station are not official NWS values.
T = Trace of Precipitation, MM = Missing Value Source: NWS Daily Summary

Daily Weather History Graph

Daily Weather History Graph

Search for Another Location

Airport or City:

Trip Planner

Search our weather history database for the weather conditions in past years. The results will help you decide how hot, cold, wet, or windy it might be!

Date:

Astronomy

Apr. 18, 2013 Rise Set
Actual Time 6:39 AM CDT 7:40 PM CDT
Civil Twilight 6:14 AM CDT 8:05 PM CDT
Nautical Twilight 5:45 AM CDT 8:35 PM CDT
Astronomical Twilight 5:14 AM CDT 9:05 PM CDT
Moon 12:56 PM CDT (4/18) 1:50 AM CDT (4/18)
Length of Visible Light 13h 51m
Length of Day
13h 01m
First Quarter, 52% of the Moon is Illuminated
Apr 18
First Quarter
Apr 25
Full
May 2
Last Quarter
May 9
New
May 17
First Quarter

Hourly Weather History & Observations

Time (CDT) Temp. Heat Index Dew Point Humidity Pressure Visibility Wind Dir Wind Speed Gust Speed Precip Events Conditions
12:15 AM 75.2 °F - 69.8 °F 83% 29.88 in 7.0 mi SE 8.1 mph - N/A   Overcast
12:35 AM 75.2 °F - 69.8 °F 83% 29.87 in 10.0 mi SE 9.2 mph - N/A   Overcast
12:55 AM 75.2 °F - 69.8 °F 83% 29.87 in 10.0 mi SSE 9.2 mph 18.4 mph N/A   Overcast
1:15 AM 75.2 °F - 69.8 °F 83% 29.86 in 10.0 mi SSE 8.1 mph 17.3 mph N/A   Overcast
1:35 AM 75.2 °F - 68.0 °F 78% 29.86 in 10.0 mi SSE 9.2 mph - N/A   Overcast
1:55 AM 73.4 °F - 69.8 °F 88% 29.86 in 10.0 mi SSE 8.1 mph - N/A   Overcast
2:15 AM 75.2 °F - 68.0 °F 78% 29.86 in 10.0 mi SE 5.8 mph - N/A   Overcast
2:35 AM 73.4 °F - 69.8 °F 88% 29.85 in 10.0 mi SSE 9.2 mph - N/A   Overcast
2:55 AM 73.4 °F - 68.0 °F 83% 29.83 in 10.0 mi SSE 9.2 mph - N/A   Overcast
3:15 AM 73.4 °F - 68.0 °F 83% 29.83 in 10.0 mi SSE 8.1 mph - N/A   Overcast
3:35 AM 73.4 °F - 68.0 °F 83% 29.82 in 10.0 mi SE 8.1 mph - N/A   Overcast
3:55 AM 73.4 °F - 69.8 °F 88% 29.81 in 10.0 mi SE 6.9 mph - N/A   Overcast
4:15 AM 73.4 °F - 69.8 °F 88% 29.80 in 10.0 mi SSE 8.1 mph - N/A   Overcast
4:35 AM 73.4 °F - 68.0 °F 83% 29.79 in 10.0 mi SSE 10.4 mph 17.3 mph N/A   Overcast
4:55 AM 73.4 °F - 68.0 °F 83% 29.78 in 10.0 mi SSE 9.2 mph - N/A   Overcast
5:15 AM 73.4 °F - 68.0 °F 83% 29.78 in 10.0 mi SSE 9.2 mph 18.4 mph N/A   Overcast
5:35 AM 73.4 °F - 68.0 °F 83% 29.78 in 10.0 mi SSE 8.1 mph - N/A   Overcast
5:55 AM 73.4 °F - 68.0 °F 83% 29.78 in 10.0 mi SSE 8.1 mph - N/A   Overcast
6:15 AM 73.4 °F - 68.0 °F 83% 29.78 in 10.0 mi SSE 8.1 mph - N/A   Overcast
6:35 AM 73.4 °F - 68.0 °F 83% 29.78 in 10.0 mi SSE 13.8 mph 21.9 mph N/A   Overcast
6:55 AM 73.4 °F - 68.0 °F 83% 29.79 in 10.0 mi SSE 8.1 mph - N/A   Overcast
7:15 AM 73.4 °F - 68.0 °F 83% 29.80 in 10.0 mi SSE 6.9 mph - N/A   Overcast
7:35 AM 73.4 °F - 68.0 °F 83% 29.81 in 10.0 mi South 8.1 mph - N/A   Overcast
7:55 AM 73.4 °F - 68.0 °F 83% 29.82 in 10.0 mi South 5.8 mph - N/A   Overcast
8:15 AM 73.4 °F - 68.0 °F 83% 29.81 in 10.0 mi South 8.1 mph 18.4 mph N/A   Overcast
8:35 AM 75.2 °F - 68.0 °F 78% 29.82 in 10.0 mi South 8.1 mph - N/A   Overcast
8:55 AM 75.2 °F - 68.0 °F 78% 29.81 in 10.0 mi South 9.2 mph - N/A   Overcast
9:15 AM 75.2 °F - 68.0 °F 78% 29.81 in 10.0 mi South 9.2 mph 17.3 mph N/A   Overcast
9:35 AM 75.2 °F - 69.8 °F 83% 29.81 in 10.0 mi South 12.7 mph 18.4 mph N/A   Overcast
9:55 AM 77.0 °F - 69.8 °F 78% 29.81 in 10.0 mi SSE 13.8 mph 19.6 mph N/A   Mostly Cloudy
10:15 AM 78.8 °F - 68.0 °F 69% 29.80 in 10.0 mi SSE 10.4 mph 23.0 mph N/A   Mostly Cloudy
10:35 AM 78.8 °F - 69.8 °F 74% 29.80 in 10.0 mi SSE 10.4 mph 18.4 mph N/A   Overcast
10:55 AM 78.8 °F - 69.8 °F 74% 29.80 in 10.0 mi South 16.1 mph 20.7 mph N/A   Overcast
11:15 AM 80.6 °F 83.9 °F 69.8 °F 70% 29.79 in 10.0 mi SSE 12.7 mph 23.0 mph N/A   Overcast
11:35 AM 80.6 °F 83.9 °F 69.8 °F 70% 29.78 in 10.0 mi SSE 13.8 mph 26.5 mph N/A   Mostly Cloudy
11:55 AM 82.4 °F 86.3 °F 69.8 °F 66% 29.77 in 10.0 mi South 19.6 mph 26.5 mph N/A   Mostly Cloudy
12:15 PM 80.6 °F 83.9 °F 69.8 °F 70% 29.78 in 10.0 mi South 13.8 mph 23.0 mph N/A   Overcast
12:35 PM 80.6 °F 83.9 °F 69.8 °F 70% 29.77 in 10.0 mi South 13.8 mph 23.0 mph N/A   Overcast
12:55 PM 80.6 °F 83.9 °F 69.8 °F 70% 29.78 in 10.0 mi South 10.4 mph 19.6 mph N/A   Overcast
1:15 PM 80.6 °F 83.9 °F 69.8 °F 70% 29.78 in 10.0 mi South 8.1 mph 16.1 mph N/A   Overcast
1:35 PM 80.6 °F 83.9 °F 69.8 °F 70% 29.77 in 10.0 mi South 11.5 mph 19.6 mph N/A   Overcast
1:55 PM 80.6 °F 83.9 °F 69.8 °F 70% 29.77 in 10.0 mi South 8.1 mph 19.6 mph N/A   Overcast
2:15 PM 80.6 °F 83.9 °F 69.8 °F 70% 29.77 in 10.0 mi South 13.8 mph 18.4 mph N/A   Overcast
2:35 PM 80.6 °F 84.6 °F 71.6 °F 74% 29.76 in 10.0 mi South 11.5 mph 20.7 mph N/A   Overcast
2:55 PM 80.6 °F 84.6 °F 71.6 °F 74% 29.75 in 10.0 mi South 10.4 mph 19.6 mph N/A   Mostly Cloudy
3:15 PM 78.8 °F - 69.8 °F 74% 29.75 in 10.0 mi South 12.7 mph 16.1 mph N/A   Overcast
3:35 PM 78.8 °F - 69.8 °F 74% 29.74 in 10.0 mi South 12.7 mph 17.3 mph N/A   Overcast
3:55 PM 78.8 °F - 69.8 °F 74% 29.73 in 10.0 mi South 12.7 mph 20.7 mph N/A   Overcast
4:15 PM 78.8 °F - 69.8 °F 74% 29.73 in 10.0 mi South 10.4 mph 19.6 mph N/A   Overcast
4:35 PM 78.8 °F - 69.8 °F 74% 29.73 in 10.0 mi South 10.4 mph 18.4 mph N/A   Overcast
4:55 PM 77.0 °F - 69.8 °F 78% 29.73 in 7.0 mi South 12.7 mph 17.3 mph N/A   Overcast
5:15 PM 75.2 °F - 71.6 °F 89% 29.72 in 7.0 mi South 6.9 mph 17.3 mph N/A Rain Light Rain
5:35 PM 75.2 °F - 69.8 °F 83% 29.72 in 7.0 mi South 8.1 mph 18.4 mph N/A   Overcast
5:55 PM 66.2 °F - 60.8 °F 83% 29.76 in 5.0 mi NW 23.0 mph 38.0 mph N/A Rain Light Rain
6:15 PM 59.0 °F - 57.2 °F 94% 29.79 in 1.8 mi NW 16.1 mph 27.6 mph 0.09 in Rain Rain
6:35 PM 59.0 °F - 53.6 °F 82% 29.80 in 4.0 mi NNW 18.4 mph 28.8 mph 0.10 in Rain Light Rain
6:55 PM 59.0 °F - 53.6 °F 82% 29.81 in 10.0 mi NNW 16.1 mph 23.0 mph 0.10 in Rain Light Rain
7:15 PM 57.2 °F - 53.6 °F 88% 29.85 in 10.0 mi NW 11.5 mph 17.3 mph N/A Rain , Thunderstorm Light Thunderstorms and Rain
7:35 PM 57.2 °F - 55.4 °F 94% 29.85 in 4.0 mi NNW 11.5 mph 17.3 mph 0.01 in   Overcast
7:55 PM 57.2 °F - 55.4 °F 94% 29.87 in 5.0 mi NNW 9.2 mph - 0.01 in Rain Light Rain
8:15 PM 55.4 °F - 53.6 °F 94% 29.87 in 7.0 mi NNW 10.4 mph 16.1 mph N/A Rain Rain
8:35 PM 55.4 °F - 51.8 °F 88% 29.89 in 7.0 mi NNW 13.8 mph 17.3 mph 0.02 in Rain , Thunderstorm Light Thunderstorms and Rain
9:55 PM 51.8 °F - 50.0 °F 94% 29.96 in 7.0 mi NNW 13.8 mph 18.4 mph 0.04 in Rain , Thunderstorm Heavy Thunderstorms and Rain
10:15 PM 51.8 °F - 50.0 °F 94% 29.96 in 10.0 mi NNW 10.4 mph 16.1 mph N/A Rain Light Rain
10:35 PM 51.8 °F - 48.2 °F 88% 29.98 in 10.0 mi NW 11.5 mph 16.1 mph N/A   Overcast
10:55 PM 51.8 °F - 48.2 °F 88% 29.99 in 10.0 mi NNW 11.5 mph 17.3 mph N/A   Overcast
11:15 PM 50.0 °F - 48.2 °F 94% 29.99 in 10.0 mi NNW 9.2 mph - N/A   Overcast
11:35 PM 50.0 °F - 48.2 °F 94% 30.00 in 10.0 mi NNW 10.4 mph - N/A   Overcast
11:55 PM 50.0 °F - 46.4 °F 87% 30.01 in 10.0 mi NW 10.4 mph - N/A   Overcast